Regional Weather Roundup
Issued by NWS

Home | Current Version | Previous Version | Text Only | Print | Product List | Glossary Off
Versions: 1 2 3 4 5 6 7 8 9 10 11 12 13 14 15 16 17 18 19 20 21 22 23 24 25 26 27 28 29 30 31 32 33 34 35 36 37 38 39 40 41 42 43 44 45 46 47 48 49 50

000
ASUS43 KMPX 040701
RWRMN
WEATHER ROUNDUP FOR MINNESOTA
NATIONAL WEATHER SERVICE TWIN CITIES/CHANHASSEN MN
200 AM CDT MON MAY 04 2015


NOTE: "FAIR" INDICATES FEW OR NO CLOUDS BELOW 12,000 FEET WITH NO
SIGNIFICANT WEATHER AND/OR OBSTRUCTIONS TO VISIBILITY. N/A MEANS
CURRENT SKY AND/OR WEATHER CONDITIONS ARE NOT AVAILABLE.

MNZ060>063-068>070-040800-
   Twin Cities Metro

CITY           SKY/WX    TMP DP  RH WIND       PRES   REMARKS
TWIN CITIES    MOCLDY    57  43  59 N7        29.98R
ST PAUL        CLEAR     55  45  68 N9        29.98R
CRYSTAL        PTCLDY    55  42  61 N6        29.98R
BLAINE         CLEAR     54  45  71 N5        29.99R
LAKEVILLE      PTCLDY    54  46  76 CALM      29.98R
EDEN PRAIRIE   PTCLDY    55  43  63 N6        29.97R
SOUTH ST PAUL  PTCLDY    57  45  63 N3        29.97S
LAKE ELMO      FAIR      54  45  71 N3        29.99R
$$
MNZ001>005-007-008-013>017-022>024-027-028-040800-
   Northwest Minnesota

CITY           SKY/WX    TMP DP  RH WIND       PRES   REMARKS
BEMIDJI        CLEAR     36  30  79 CALM      30.06R
HALLOCK        CLEAR     39  30  70 CALM      30.09R
ROSEAU         CLEAR     39  34  81 CALM      30.08R
WARROAD        CLEAR     39  36  87 CALM      30.08R
THIEF RVR FALL CLEAR     46  34  61 N5        30.08R
CROOKSTON      CLEAR     39  23  52 N5        30.09R
MOORHEAD       CLEAR     43  27  52 N3        30.08R
PARK RAPIDS    CLEAR     44  30  57 CALM      30.05R
MAHNOMEN       FAIR      40  26  56 CALM      30.06R
$$
MNZ006-009>011-018-025>026-040800-
   North Central Minnesota

CITY           SKY/WX    TMP DP  RH WIND       PRES   REMARKS
BAUDETTE       CLEAR     38  35  89 W6        30.06R
FLAG ISLAND    CLEAR     45  39  81 NW9       30.05R
INTL FALLS     CLEAR     32  30  92 CALM      30.04R
WASKISH        CLEAR     34  30  86 CALM      30.06R
BIG FORK       CLEAR     36  30  80 CALM      30.05S
LONGVILLE      CLEAR     43  36  75 CALM      30.05R
GRAND RAPIDS   CLEAR     46  30  53 CALM      30.05R
CRANE LAKE     CLEAR     34  30  86 CALM      30.04S
COOK           CLEAR     37  34  87 CALM      30.04R
WALKER         FAIR      43  31  62 CALM      30.05R
$$
MNZ012-019>021-037-040800-
   Northeast Minnesota

CITY           SKY/WX    TMP DP  RH WIND       PRES   REMARKS
DULUTH         CLEAR     51  32  48 NW10      29.99R
ELY            CLEAR     41  34  75 NW6       30.01R
HIBBING        CLEAR     41  31  67 N8        30.02R
EVELETH        CLEAR     50  34  53 NW6       30.03R
DULUTH HARBOR  CLEAR     52  37  58 NW15      29.99R
TWO HARBORS    PTCLDY    54  37  54 NW5       29.96S
SILVER BAY     PTCLDY    52  34  50 NW5       29.96R
GRAND MARAIS     N/A     53  35  50 N14G24    29.93R
G MARAIS ARPRT PTCLDY    45  32  61 N7        29.95S
$$
MNZ029>031-032-039>041-046>048-054>057-064-040800-
   West Central Minnesota

CITY           SKY/WX    TMP DP  RH WIND       PRES   REMARKS
FERGUS FALLS   CLEAR     45  28  53 N3        30.07S
WHEATON        CLEAR     45  28  53 CALM      30.09R
MORRIS         CLEAR     46  27  46 NW8       30.05R
ALEXANDRIA     CLEAR     49  34  56 N7        30.06R
ELBOW LAKE     FAIR      47  31  52 N5        30.05S
WADENA         CLEAR     46  28  49 CALM      30.05R
GLENWOOD       CLEAR     48  34  57 N7        30.05R
APPLETON       CLEAR     46  28  49 N8        30.05R
BENSON         CLEAR     39  28  65 N6        30.04S
ORTONVILLE     CLEAR     46  34  61 NW7       30.06R
MADISON        FAIR      45  28  53 NW7       30.05S
WILLMAR        FAIR      50  34  53 NW5       30.05R
$$
MNZ033>034-036-042>043-049>051-058-059-040800-
   Central Minnesota

CITY           SKY/WX    TMP DP  RH WIND       PRES   REMARKS
ST CLOUD       CLEAR     46  33  60 N3        30.01R
SAUK CENTRE    FAIR      46  35  65 NW8       30.04S
PAYNESVILLE    CLEAR     42  32  67 SW5       30.04R
AITKIN         CLEAR     43  32  65 CALM      30.03R
PINE RIVER     CLEAR     37  30  75 CALM      30.08R
BRAINERD       CLEAR     45  35  68 N7        30.05R
STAPLES        CLEAR     43  28  56 CALM      30.05R
LONG PRAIRIE   FAIR      46  30  53 N3        30.05R
LITTLE FALLS   CLEAR     46  32  57 CALM      30.04R
LITCHFIELD     CLEAR     50  34  53 CALM      30.03R
BUFFALO        CLEAR     49  42  77 CALM      30.01S
MAPLE LAKE     CLEAR     50  40  67 NW6       30.02R
$$
MNZ037-044-045-052-053-040800-
   East Central Minnesota

CITY           SKY/WX    TMP DP  RH WIND       PRES   REMARKS
PRINCETON      CLEAR     43  36  75 NW5       30.01R
MORA           CLEAR     50  32  50 N3        30.03R
CAMBRIDGE      CLEAR     46  37  71 NW3       29.99R
RUSH CITY      PTCLDY    47  36  66 N7        30.00R
MOOSE LAKE     CLEAR     46  32  57 N6        30.00R
HINCKLEY       FAIR      52  32  46 N8        30.01R
CLOQUET        CLEAR     50  30  46 NW8       30.01R
MCGREGOR       CLEAR     46  34  61 N5        30.04R
$$
MNZ071>073-080-081-089-090-097-098-040800-
   Southwest Minnesota

CITY           SKY/WX    TMP DP  RH WIND       PRES   REMARKS
MONTEVIDEO     CLEAR     48  30  49 N6        30.05R
GRANITE FALLS  CLEAR     47  29  49 NW8       30.05R
CANBY          CLEAR     43  30  59 NW7       30.07R
MARSHALL       CLEAR     46  25  42 NW10      30.04R
REDWOOD FALLS  PTCLDY    54  31  41 NW6       30.02R
OLIVIA         CLEAR     46  30  53 NW8       30.02R
PIPESTONE      PTCLDY    54  27  35 N6        30.04R
WORTHINGTON    CLOUDY    55  27  33 N7        30.03R
JACKSON        PTCLDY    55  32  41 N6        30.00S
TRACY          CLEAR     53  28  38 NW12      30.03R
SLAYTON        PTCLDY    50  28  43 N7        30.04R
$$
MNZ065>067-074>077-082>085-091>093-040800-
   South Central Minnesota

CITY           SKY/WX    TMP DP  RH WIND       PRES   REMARKS
MANKATO          N/A    N/A N/A N/A MISG        N/A
NEW ULM        PTCLDY    55  30  38 N8        29.99R
ST JAMES       PTCLDY    57  34  41 NW8       30.00S
FAIRMONT       MOCLDY    55  39  54 NW10      29.97S
GLENCOE        PTCLDY    54  39  55 N5        29.99S
FARIBAULT      MOCLDY    54  46  76 CALM      29.97S
OWATONNA       MOCLDY    54  48  82 N7        29.96S
WASECA         MOCLDY    54  46  76 N9        29.98R
ALBERT LEA     CLOUDY    55  52  88 N6        29.95S
$$
MNZ078>079-086>088-094>096-040800-
   Southeast Minnesota

CITY           SKY/WX    TMP DP  RH WIND       PRES   REMARKS
ROCHESTER      CLOUDY    55  54  96 NW8       29.96R
RED WING       PTCLDY    55  50  82 CALM      29.96R
STANTON        MOCLDY    52  49  90 CALM      29.96R
DODGE CENTER   CLOUDY    55  52  88 N8        29.95S
WINONA         CLOUDY    59  55  88 NW6       29.93R
AUSTIN         CLOUDY    55  52  88 N6        29.93F
PRESTON        CLOUDY    56  55  96 NW3       29.94S FOG
$$
ABBREVIATIONS USED IN REMARKS
   TC - TEMPERATURES IN CELSIUS
  WCI - WIND CHILL INDEX
   HX - HEAT INDEX
  VSB - VISIBILITY
$$



USA.gov is the U.S. government's official web portal to all federal, state and local government web resources and services.